Location: Newark
(54.6833°N, 25.2833°E)
Time: 23:24:43
(UTC+00:00)

Tiros 1 despin weight - Pass Details

Date: 26 November 2019
Orbit: 594 x 642 km, 48.2° (Epoch: 15 December)

Event Time Altitude Azimuth Distance (km) Brightness Sun altitude
Rises 11:09:32 0° 249° (WSW) 2,827 ? 13.2°
Reaches altitude 10° 11:11:57 10° 241° (WSW) 1,925 ? 13.1°
Maximum altitude 11:15:58 35° 175° (S) 964 ? 12.9°
Drops below altitude 10° 11:20:00 10° 110° (ESE) 1,934 ? 12.7°
Sets 11:22:26 0° 102° (ESE) 2,842 ? 12.6°
